SL-16 DEB

Satellite information

Favourite Embed

Satellite Type and Status

DEBRISIN ORBIT

Key statistics

Satellite SL-16 DEB at a glance.

Uptime

12042

Days in orbit

Revolutions

≈ 14.0

Per day

Orbit

LEO

Low Earth Orbit

Inclination

70.7

Latest

Satellite identification and parameters

Extended collection of information and parameters for SL-16 DEB.

Object identification

Identified? True

Debris? True

Object name: SL-16 DEB

International designator: 1992-093AY

Object number (NORAD): 22359

Object ID (CCSDS): 22359

Country: COMMONWEALTH OF INDEPENDENT STATES (CIS)

Current information (Y/N): Y

RCS size: SMALL

Orbital parameters

Period: 103.101 minutes

Inclination: 70.7414 deg

SMA: 7283.417 km

Apoapsis: 1019.017 km

Periapsis: 791.547 km

RAAN: 333.8199 deg

Eccentricy: 0.01561561

Argument of periapsis: 33.89 deg

Mean anomaly: 79.9183 deg

Mean motion: 13.96689969 rev/day

Mean motion (dot): 0.00002529 rev/day2

B* drag term: 0.001674828 1/REarth

Two-line elements (TLE)

Creation date: Dec. 12, 2025, 10:14 a.m.

Reference frame: TEME

Reference center: EARTH

Epoch: Dec. 12, 2025, 7:06 a.m. UTC

TLE line 0: 0 SL-16 DEB

TLE line 1: 1 22359U 92093AY 25346.29593271 .00002529 00000-0 16748-2 0 9998

TLE line 2: 2 22359 70.7414 333.8199 0156156 33.8900 79.9183 13.96689969664963

Live tracking on map

Real-time ground track for satellite SL-16 DEB.

In-orbit conjunctions

A list of the most updated potential collisions computed for object SL-16 DEB.

Target Orbit TCA Probability of collision Miss distance Type
CZ-6A DEB LEO 2024-11-13 00:09:56 0.0002417586 870.0 (m) DEBRIS
FENGYUN 1C DEB SSO 2024-11-09 18:41:34 0.0001410416 337.0 (m) DEBRIS
SL-16 DEB LEO 2024-11-08 08:27:10 0.0002303711 479.0 (m) DEBRIS

Associated space launch

Second generation ELING satellite

SL-16 DEB was lifted into orbit during the mission ‘Zenit-2 | Tselina-2 12’, on board a Zenit-2 space rocket.

The launch took place on Dec. 25, 1992, 5:56 a.m. from 45/1.

For more information about the launch, click the button.

Launch to space Zenit-2 | Tselina-2 12
Zenit-2 | Tselina-2 12

Agency: N/A

Status: Launch Successful

Launch date: Dec. 25, 1992, 5:56 a.m. UTC

Rocket: Zenit-2

Launch pad: 45/1

Location: Baikonur Cosmodrome, Republic of Kazakhstan

...

Latest news about this satellite

There are no fresh news available about this satellite. Check back as we update our databases every day.


Newsletter sign-up

Weekly statistics, charts and insights to help you stay on top of the space industry.